Time,TemperatureF,DewpointF,PressureIn,WindDirection,WindDirectionDegrees,WindSpeedMPH,WindSpeedGustMPH,Humidity,HourlyPrecipIn,Conditions,Clouds,dailyrainin,SoftwareType,DateUTC
2013-03-12 07:43:00,27.0,26.0,-100.00,WSW,250,4.0,-999.0,98,0.00,,,-99.99,,2013-03-12 13:43:00,
2013-03-12 07:52:00,27.0,26.0,-100.00,WNW,290,2.0,6.0,98,0.00,,,-99.99,,2013-03-12 13:52:00,
2013-03-12 08:02:00,27.0,26.0,-100.00,WNW,285,3.0,4.0,98,0.00,,,-99.99,,2013-03-12 14:02:00,
2013-03-12 08:12:00,27.0,26.0,-100.00,WNW,300,2.0,4.0,98,0.00,,,-99.99,,2013-03-12 14:12:00,
2013-03-12 08:22:00,26.0,26.0,-100.00,WSW,255,4.0,9.0,98,0.00,,,-99.99,,2013-03-12 14:22:00,
2013-03-12 08:32:00,26.0,26.0,-100.00,West,260,3.0,7.0,98,0.00,,,-99.99,,2013-03-12 14:32:00,
2013-03-12 08:42:00,26.0,25.0,-100.00,West,260,4.0,7.0,98,0.00,,,-99.99,,2013-03-12 14:42:00,
2013-03-12 08:52:00,26.0,25.0,-100.00,WSW,245,3.0,7.0,98,0.00,,,-99.99,,2013-03-12 14:52:00,
2013-03-12 09:02:00,26.0,25.0,-100.00,West,280,3.0,7.0,98,0.00,,,-99.99,,2013-03-12 15:02:00,
2013-03-12 09:12:00,26.0,25.0,-100.00,NW,320,4.0,6.0,97,0.00,,,-99.99,,2013-03-12 15:12:00,
2013-03-12 09:22:00,26.0,25.0,-100.00,WNW,295,5.0,8.0,97,0.00,,,-99.99,,2013-03-12 15:22:00,
2013-03-12 09:32:00,25.0,25.0,-100.00,West,275,2.0,7.0,96,0.00,,,-99.99,,2013-03-12 15:32:00,
2013-03-12 09:42:00,26.0,25.0,-100.00,NW,325,4.0,6.0,96,0.00,,,-99.99,,2013-03-12 15:42:00,
2013-03-12 09:52:00,26.0,24.0,-100.00,North,10,4.0,6.0,95,0.00,,,-99.99,,2013-03-12 15:52:00,
2013-03-12 10:02:00,26.0,24.0,-100.00,North,0,6.0,9.0,94,0.00,,,-99.99,,2013-03-12 16:02:00,
2013-03-12 10:12:00,26.0,24.0,-100.00,NNW,345,6.0,8.0,92,0.00,,,-99.99,,2013-03-12 16:12:00,
2013-03-12 10:22:00,27.0,25.0,-100.00,North,350,4.0,7.0,90,0.00,,,-99.99,,2013-03-12 16:22:00,
2013-03-12 10:33:00,28.0,25.0,-100.00,North,0,4.0,7.0,88,0.00,,,-99.99,,2013-03-12 16:33:00,
2013-03-12 10:43:00,28.0,24.0,-100.00,NNW,345,2.0,7.0,84,0.00,,,-99.99,,2013-03-12 16:43:00,
2013-03-12 10:52:00,28.0,24.0,-100.00,NW,310,4.0,8.0,82,0.00,,,-99.99,,2013-03-12 16:52:00,
2013-03-12 11:02:00,29.0,24.0,-100.00,NW,325,2.0,6.0,81,0.00,,,-99.99,,2013-03-12 17:02:00,
2013-03-12 11:12:00,29.0,24.0,-100.00,NNW,340,4.0,6.0,80,0.00,,,-99.99,,2013-03-12 17:12:00,
2013-03-12 11:22:00,30.0,24.0,-100.00,NW,315,2.0,4.0,79,0.00,,,-99.99,,2013-03-12 17:22:00,
2013-03-12 11:33:00,29.0,23.0,-100.00,NNW,345,4.0,7.0,77,0.00,,,-99.99,,2013-03-12 17:33:00,
2013-03-12 11:43:00,29.0,23.0,-100.00,NW,310,6.0,8.0,78,0.00,,,-99.99,,2013-03-12 17:43:00,
2013-03-12 11:53:00,29.0,23.0,-100.00,NNW,345,5.0,6.0,79,0.00,,,-99.99,,2013-03-12 17:53:00,
2013-03-12 12:02:00,29.0,23.0,-100.00,NNW,330,4.0,8.0,78,0.00,,,-99.99,,2013-03-12 18:02:00,
2013-03-12 12:13:00,30.0,24.0,-100.00,North,350,2.0,6.0,78,0.00,,,-99.99,,2013-03-12 18:13:00,
2013-03-12 12:23:00,30.0,23.0,-100.00,NNW,340,4.0,7.0,76,0.00,,,-99.99,,2013-03-12 18:23:00,
2013-03-12 12:33:00,29.0,23.0,-100.00,NW,315,5.0,7.0,76,0.00,,,-99.99,,2013-03-12 18:33:00,
2013-03-12 12:42:00,30.0,23.0,-100.00,NNW,345,5.0,8.0,76,0.00,,,-99.99,,2013-03-12 18:42:00,
2013-03-12 12:53:00,30.0,24.0,-100.00,North,0,3.0,7.0,75,0.00,,,-99.99,,2013-03-12 18:53:00,
2013-03-12 13:03:00,30.0,23.0,-100.00,NNW,345,6.0,9.0,74,0.00,,,-99.99,,2013-03-12 19:03:00,
2013-03-12 13:13:00,30.0,23.0,-100.00,NNW,340,5.0,9.0,74,0.00,,,-99.99,,2013-03-12 19:13:00,
2013-03-12 13:22:00,31.0,23.0,-100.00,North,355,4.0,7.0,73,0.00,,,-99.99,,2013-03-12 19:22:00,
2013-03-12 13:33:00,30.0,23.0,-100.00,NW,320,4.0,9.0,72,0.00,,,-99.99,,2013-03-12 19:33:00,
2013-03-12 13:43:00,31.0,23.0,-100.00,NW,320,6.0,10.0,71,0.00,,,-99.99,,2013-03-12 19:43:00,
2013-03-12 13:53:00,30.0,22.0,-100.00,NNW,340,6.0,9.0,71,0.00,,,-99.99,,2013-03-12 19:53:00,
2013-03-12 14:02:00,30.0,22.0,-100.00,NNW,340,6.0,8.0,71,0.00,,,-99.99,,2013-03-12 20:02:00,
2013-03-12 14:12:00,31.0,23.0,-100.00,NNW,335,4.0,7.0,70,0.00,,,-99.99,,2013-03-12 20:12:00,
2013-03-12 14:22:00,31.0,22.0,-100.00,North,5,7.0,10.0,69,0.00,,,-99.99,,2013-03-12 20:22:00,
2013-03-12 14:32:00,31.0,22.0,-100.00,North,355,7.0,9.0,70,0.00,,,-99.99,,2013-03-12 20:32:00,
2013-03-12 14:42:00,31.0,23.0,-100.00,NNW,335,3.0,9.0,70,0.00,,,-99.99,,2013-03-12 20:42:00,
2013-03-12 14:52:00,32.0,23.0,-100.00,North,10,6.0,9.0,69,0.00,,,-99.99,,2013-03-12 20:52:00,
2013-03-12 15:02:00,31.0,23.0,-100.00,NNE,15,6.0,8.0,69,0.00,,,-99.99,,2013-03-12 21:02:00,
2013-03-12 15:12:00,32.0,23.0,-100.00,NW,320,6.0,8.0,69,0.00,,,-99.99,,2013-03-12 21:12:00,
2013-03-12 15:22:00,33.0,23.0,-100.00,North,355,4.0,6.0,68,0.00,,,-99.99,,2013-03-12 21:22:00,
2013-03-12 15:32:00,33.0,24.0,-100.00,North,5,3.0,7.0,68,0.00,,,-99.99,,2013-03-12 21:32:00,
2013-03-12 15:43:00,34.0,24.0,-100.00,NNW,330,4.0,6.0,66,0.00,,,-99.99,,2013-03-12 21:43:00,
2013-03-12 15:52:00,35.0,24.0,-100.00,NE,45,0.0,6.0,64,0.00,,,-99.99,,2013-03-12 21:52:00,
2013-03-12 16:02:00,34.0,24.0,-100.00,NNW,345,4.0,6.0,64,0.00,,,-99.99,,2013-03-12 22:02:00,
2013-03-12 16:12:00,34.0,23.0,-100.00,NNE,20,3.0,6.0,64,0.00,,,-99.99,,2013-03-12 22:12:00,
2013-03-12 16:22:00,34.0,24.0,-100.00,North,0,1.0,7.0,65,0.00,,,-99.99,,2013-03-12 22:22:00,
2013-03-12 16:33:00,35.0,24.0,-100.00,North,350,2.0,4.0,63,0.00,,,-99.99,,2013-03-12 22:33:00,
2013-03-12 16:42:00,35.0,24.0,-100.00,NNE,15,3.0,6.0,63,0.00,,,-99.99,,2013-03-12 22:42:00,
2013-03-12 16:52:00,37.0,25.0,-100.00,East,80,1.0,6.0,62,0.00,,,-99.99,,2013-03-12 22:52:00,
2013-03-12 17:02:00,36.0,24.0,-100.00,North,0,2.0,6.0,62,0.00,,,-99.99,,2013-03-12 23:02:00,
2013-03-12 17:12:00,35.0,24.0,-100.00,North,0,3.0,6.0,63,0.00,,,-99.99,,2013-03-12 23:12:00,
2013-03-12 17:22:00,35.0,24.0,-100.00,NNW,335,4.0,6.0,62,0.00,,,-99.99,,2013-03-12 23:22:00,
2013-03-12 17:34:00,36.0,25.0,-100.00,NE,35,0.0,6.0,62,0.00,,,-99.99,,2013-03-12 23:34:00,
2013-03-12 17:43:00,36.0,24.0,-100.00,East,90,2.0,6.0,62,0.00,,,-99.99,,2013-03-12 23:43:00,
2013-03-12 17:52:00,36.0,24.0,-100.00,NE,50,6.0,6.0,62,0.00,,,-99.99,,2013-03-12 23:52:00,
2013-03-12 18:02:00,36.0,24.0,-100.00,East,85,3.0,6.0,63,0.00,,,-99.99,,2013-03-13 00:02:00,
2013-03-12 18:12:00,37.0,25.0,-100.00,ENE,70,1.0,4.0,62,0.00,,,-99.99,,2013-03-13 00:12:00,
2013-03-12 18:23:00,37.0,25.0,-100.00,East,90,0.0,4.0,61,0.00,,,-99.99,,2013-03-13 00:23:00,
2013-03-12 18:33:00,36.0,24.0,-100.00,NE,55,1.0,3.0,62,0.00,,,-99.99,,2013-03-13 00:33:00,
2013-03-12 18:42:00,35.0,24.0,-100.00,ENE,70,0.0,2.0,64,0.00,,,-99.99,,2013-03-13 00:42:00,
2013-03-12 18:52:00,34.0,24.0,-100.00,NE,40,3.0,4.0,67,0.00,,,-99.99,,2013-03-13 00:52:00,
2013-03-12 19:02:00,33.0,24.0,-100.00,NNE,20,1.0,4.0,70,0.00,,,-99.99,,2013-03-13 01:02:00,
2013-03-12 19:12:00,33.0,25.0,-100.00,ESE,120,1.0,3.0,72,0.00,,,-99.99,,2013-03-13 01:12:00,
2013-03-12 19:20:00,31.0,25.0,-100.00,SSW,205,3.0,4.0,76,0.00,,,-99.99,,2013-03-13 01:20:00,
2013-03-12 19:22:00,32.0,25.0,-100.00,ENE,65,0.0,2.0,74,0.00,,,-99.99,,2013-03-13 01:22:00,
2013-03-12 19:32:00,31.0,25.0,-100.00,South,170,1.0,3.0,75,0.00,,,-99.99,,2013-03-13 01:32:00,
2013-03-12 19:42:00,31.0,25.0,-100.00,SSW,205,3.0,4.0,76,0.00,,,-99.99,,2013-03-13 01:42:00,
2013-03-12 19:52:00,31.0,25.0,-100.00,SSW,205,3.0,4.0,76,0.00,,,-99.99,,2013-03-13 01:52:00,
2013-03-12 20:02:00,31.0,25.0,-100.00,SSW,205,3.0,4.0,76,0.00,,,-99.99,,2013-03-13 02:02:00,
2013-03-12 20:12:00,31.0,25.0,-100.00,SSW,205,3.0,4.0,76,0.00,,,-99.99,,2013-03-13 02:12:00,